"Pseudo-MPEC" for xkos260

Created 2022 Nov 26 22:22:25 UT using Find_Orb

Click here for an explanation of pseudo-MPECs

 
 Astrometry: 
     xkos260*KC2022 11 13yjAstrometry5tsnu^'(3?Sc'iy3uR/tpNNAredacted;B[GEjjYL87
     xkos260 KC2022 11 13t=MI!TQ4s^xTNQh#)wQTclickuaBH+vldJ/ls1FJEt.CN6upmXHEL87
     xkos260 KC2022 11 132N%-*f),KYx5).'?(dVib^Y7U'I#L\+QC5hereq'BB`@1D(mFGu'L87
     xkos260 KC2022 11 13fQp(5)sD0BG\XRgB8]d4w^FAg9BhhI.ss6b/-3RTIda7f)O#Gd!+L87
     xkos260 KC2022 11 13dBLWd;Eg#`:=#gP/vyt]j:f@3^?r;EYZ:$G=vb1forV%5D/x@.r#L87
     xkos260 KC2022 11 13y3Cs+01$(3?'FSAJ!_=JVv_+^t90wlwt?(*P,g=ncYjg4)A+Sx'mL87
     xkos260 KC2022 11 13R2QM;$L9ylu]v\$nbMWu=y0@;SrCK/+xexplanationiGV:Ub5m8L87
     xkos260 KC2022 11 13qq,3x/o=?o74#d1#5u/gd0CZJSv_F51qAxp_-eV5Ho82oG!$h@41L87

Station data:
(L87) Moonbase South Observatory, Hakos  (S23.236420 E16.361890)  Namibia.
   Observer G. Duszanowicz. 0.36-m f/7.7 reflector + CCD.

Orbital elements:  xkos260
   Perihelion 2022 Oct 27.98052 +/- 12.9 TT = 23:31:57 (JD 2459880.48052)
Epoch 2022 Nov 14.0 TT = JDT 2459897.5   Earth MOID: 0.2881   Ma: 0.0054
M   3.91924090 +/- 2.4              (J2000 ecliptic)          AutoNEOCP
n   0.23027974 +/- 0.041            Peri.  232.98724 +/- 24
a   2.63612232 +/- 0.313            Node   160.96742 +/- 13
e   0.5315256 +/- 0.0522            Incl.   11.77536 +/- 1.4
P   4.28                   H 18.1   G  0.15   U 10.6  SR
q 1.23495564 +/- 0.0193    Q 4.03728900 +/- 0.735
From 8 observations 2022 Nov. 13 (20.0 min); mean residual 0".67
Residuals in arcseconds: 
221113 L87  .33-  .39+    221113 L87  .06-  .22+    221113 L87  .16-  .08+    
221113 L87  .20-  .45-    221113 L87  .54-  1.4+    221113 L87  .41-  .91-    
221113 L87  1.1+  1.2-    221113 L87  .38+  .74+    

Ephemerides (geocentric):
Date (UTC) HH   RA             Dec           delta  r     elong  mag " sig PA
---- --------  ------------   ------------  ------ ------ -----  --- --------
2022 11 26 22  03 34 56.079   -24 34 01.16  .38076 1.2798 133.7 18.0 1230 138
2022 11 26 23  03 34 58.803   -24 33 10.66  .38091 1.2799 133.7 18.0 1238 138
2022 11 27 00  03 35 01.525   -24 32 20.09  .38107 1.2801 133.7 18.0 1245 138
2022 11 27 01  03 35 04.247   -24 31 29.45  .38122 1.2802 133.7 18.0 1253 138
2022 11 27 02  03 35 06.967   -24 30 38.73  .38137 1.2803 133.7 18.0 1261 138
2022 11 27 03  03 35 09.686   -24 29 47.94  .38153 1.2804 133.7 18.0 1269 138
2022 11 27 04  03 35 12.404   -24 28 57.08  .38168 1.2806 133.7 18.0 1276 137
2022 11 27 05  03 35 15.121   -24 28 06.14  .38184 1.2807 133.7 18.0 1284 137
2022 11 27 06  03 35 17.836   -24 27 15.14  .38199 1.2808 133.7 18.0 1292 137
2022 11 27 07  03 35 20.551   -24 26 24.06  .38215 1.2809 133.7 18.0 1300 137
2022 11 27 08  03 35 23.265   -24 25 32.91  .38230 1.2810 133.7 18.0 1308 137
2022 11 27 09  03 35 25.977   -24 24 41.68  .38246 1.2812 133.7 18.0 1316 137
2022 11 27 10  03 35 28.689   -24 23 50.39  .38261 1.2813 133.7 18.0 1324 137
2022 11 27 11  03 35 31.399   -24 22 59.02  .38277 1.2814 133.7 18.0 1332 137
2022 11 27 12  03 35 34.108   -24 22 07.58  .38292 1.2815 133.7 18.0 1340 137
2022 11 27 13  03 35 36.816   -24 21 16.07  .38308 1.2817 133.7 18.0 1348 137
2022 11 27 14  03 35 39.524   -24 20 24.49  .38324 1.2818 133.7 18.0 1356 137
2022 11 27 15  03 35 42.230   -24 19 32.84  .38339 1.2819 133.7 18.0 1364 137
2022 11 27 16  03 35 44.935   -24 18 41.11  .38355 1.2820 133.7 18.0 1372 137
2022 11 27 17  03 35 47.639   -24 17 49.32  .38371 1.2822 133.7 18.0 1380 137
2022 11 27 18  03 35 50.342   -24 16 57.45  .38386 1.2823 133.7 18.0 1388 137
2022 11 27 19  03 35 53.044   -24 16 05.52  .38402 1.2824 133.7 18.0 1397 137
2022 11 27 20  03 35 55.745   -24 15 13.51  .38418 1.2825 133.7 18.0 1405 137
2022 11 27 21  03 35 58.445   -24 14 21.43  .38433 1.2826 133.7 18.0 1413 137
2022 11 27 22  03 36 01.144   -24 13 29.29  .38449 1.2828 133.7 18.0 1421 137
2022 11 27 23  03 36 03.842   -24 12 37.07  .38465 1.2829 133.7 18.0 1430 137
2022 11 28 00  03 36 06.539   -24 11 44.78  .38480 1.2830 133.7 18.0 1438 137
2022 11 28 01  03 36 09.235   -24 10 52.42  .38496 1.2831 133.7 18.0 1446 137
2022 11 28 02  03 36 11.930   -24 10 00.00  .38512 1.2833 133.7 18.0 1455 137
2022 11 28 03  03 36 14.624   -24 09 07.50  .38528 1.2834 133.7 18.0 1463 137
2022 11 28 04  03 36 17.317   -24 08 14.93  .38544 1.2835 133.7 18.0 1471 136
2022 11 28 05  03 36 20.009   -24 07 22.30  .38559 1.2837 133.7 18.0 1480 136
2022 11 28 06  03 36 22.700   -24 06 29.59  .38575 1.2838 133.7 18.0 1488 136
2022 11 28 07  03 36 25.390   -24 05 36.81  .38591 1.2839 133.7 18.0 1497 136
2022 11 28 08  03 36 28.080   -24 04 43.97  .38607 1.2840 133.7 18.0 1505 136
2022 11 28 09  03 36 30.768   -24 03 51.06  .38623 1.2842 133.7 18.0 1514 136
2022 11 28 10  03 36 33.455   -24 02 58.07  .38639 1.2843 133.7 18.0 1522 136
2022 11 28 11  03 36 36.142   -24 02 05.02  .38655 1.2844 133.7 18.0 1531 136
2022 11 28 12  03 36 38.827   -24 01 11.90  .38671 1.2845 133.7 18.0 1540 136
2022 11 28 13  03 36 41.512   -24 00 18.72  .38686 1.2847 133.7 18.0 1548 136
2022 11 28 14  03 36 44.195   -23 59 25.46  .38702 1.2848 133.7 18.0 1557 136
2022 11 28 15  03 36 46.878   -23 58 32.14  .38718 1.2849 133.7 18.0 1566 136
2022 11 28 16  03 36 49.560   -23 57 38.74  .38734 1.2850 133.7 18.0 1574 136
2022 11 28 17  03 36 52.241   -23 56 45.28  .38750 1.2852 133.7 18.0 1583 136
2022 11 28 18  03 36 54.921   -23 55 51.76  .38766 1.2853 133.7 18.0 1592 136
2022 11 28 19  03 36 57.600   -23 54 58.16  .38782 1.2854 133.7 18.0 1601 136
2022 11 28 20  03 37 00.278   -23 54 04.50  .38798 1.2856 133.7 18.0 1609 136
2022 11 28 21  03 37 02.955   -23 53 10.76  .38814 1.2857 133.7 18.0 1618 136